{"data":{"norad_id":66112,"intl_designator":"2025-236AC","name":"STARLINK-35531","alt_names":[],"object_type":"PAYLOAD","status":"ACTIVE","operator":null,"country":"US","launch_date":"2025-10-19","launch_site_code":"AFWTR","launch_vehicle":null,"mission":null,"orbit_class":"UNKNOWN","rcs_meters":null,"size_class":null,"mass_kg":null,"dimensions":null,"purposes":["comms"],"wikipedia_slug":null,"has_3d_model":false,"image_url":null,"decayed_at":null,"tle_current":{"epoch":"2026-05-25T03:49:12.167040Z","epoch_age_seconds":71859,"freshness":"FRESH","line1":"1 66112U 25236AC  26145.15916860  .00022459  00000+0  76780-3 0  9990","line2":"2 66112  53.1620 108.5883 0001517  84.7227 275.3947 15.30213927 34650","mean_motion":15.30213927,"eccentricity":0.0001517,"inclination_deg":53.162,"raan_deg":108.5883,"arg_perigee_deg":84.7227,"mean_anomaly_deg":275.3947,"bstar":0.0007678,"rev_number":3465,"period_min":94.104489221526,"perigee_km":474.13383902231,"apogee_km":476.21313342383,"semimajor_km":6853.3104862231,"source":"CELESTRAK","updated_at":"2026-05-25T13:38:21.060181Z"}}}